"FRM_AIS_EDR_2188.DAT           ",2005-09-27T09:12:28.29 ,"1/0075892343.14339",    0,    0,  274896,"AIS","B1","B1","B1","B1","PISd",0,0,0,0,"B1", 0,15,   0, 0,    0,"AIS","N/A    ","OK ","OK ",    001255.797,    -086.549,    -045.723,    0006.567,    0067.020
"FRM_AIS_EDR_2188.DAT           ",2005-09-27T09:12:35.83 ,"1/0075892350.49938",    0,    1,  274896,"AIS","B1","B1","B1","B1","PISd",0,0,0,0,"B1", 0,15,   0, 0,    0,"AIS","N/A    ","OK ","OK ",    001245.191,    -086.603,    -040.517,    0006.916,    0066.725
"FRM_AIS_EDR_2188.DAT           ",2005-09-27T09:12:43.38 ,"1/0075892358.20001",    0,    2,  274896,"AIS","B1","B1","B1","B1","PISd",0,0,0,0,"B1", 0,15,   0, 0,    0,"AIS","N/A    ","OK ","OK ",    001234.613,    -086.628,    -035.165,    0007.275,    0066.428
"FRM_AIS_EDR_2188.DAT           ",2005-09-27T09:12:50.92 ,"1/0075892365.55601",    0,    3,  274896,"AIS","B1","B1","B1","B1","PISd",0,0,0,0,"B1", 0,15,   0, 0,    0,"AIS","N/A    ","OK ","OK ",    001224.063,    -086.623,    -029.755,    0007.637,    0066.130
"FRM_AIS_EDR_2188.DAT           ",2005-09-27T09:12:58.46 ,"1/0075892373.25664",    0,    4,  274896,"AIS","B1","B1","B1","B1","PISd",0,0,0,0,"B1", 0,15,   0, 0,    0,"AIS","N/A    ","OK ","OK ",    001213.541,    -086.587,    -024.387,    0007.997,    0065.831
"FRM_AIS_EDR_2188.DAT           ",2005-09-27T09:13:06.01 ,"1/0075892380.61263",    0,    5,  274896,"AIS","B1","B1","B1","B1","PISd",0,0,0,0,"B1", 0,15,   0, 0,    0,"AIS","N/A    ","OK ","OK ",    001203.048,    -086.522,    -019.150,    0008.348,    0065.530
"FRM_AIS_EDR_2188.DAT           ",2005-09-27T09:13:13.55 ,"1/0075892388.31327",    0,    6,  274896,"AIS","B1","B1","B1","B1","PISd",0,0,0,0,"B1", 0,15,   0, 0,    0,"AIS","N/A    ","OK ","OK ",    001192.584,    -086.428,    -014.126,    0008.685,    0065.228
"FRM_AIS_EDR_2188.DAT           ",2005-09-27T09:13:21.09 ,"1/0075892396.01390",    0,    7,  274896,"AIS","B1","B1","B1","B1","PISd",0,0,0,0,"B1", 0,15,   0, 0,    0,"AIS","N/A    ","OK ","OK ",    001182.149,    -086.307,    -009.375,    0009.004,    0064.925
"FRM_AIS_EDR_2188.DAT           ",2005-09-27T09:13:28.64 ,"1/0075892403.36989",    0,    8,  274896,"AIS","B1","B1","B1","B1","PISd",0,0,0,0,"B1", 0,15,   0, 0,    0,"AIS","N/A    ","OK ","OK ",    001171.745,    -086.162,    -004.934,    0009.302,    0064.620
"FRM_AIS_EDR_2188.DAT           ",2005-09-27T09:13:36.18 ,"1/0075892411.07053",    0,    9,  274896,"AIS","B1","B1","B1","B1","PISd",0,0,0,0,"B1", 0,15,   0, 0,    0,"AIS","N/A    ","OK ","OK ",    001161.371,    -085.994,    -000.825,    0009.578,    0064.315
"FRM_AIS_EDR_2188.DAT           ",2005-09-27T09:13:43.72 ,"1/0075892418.42652",    0,   10,  274896,"AIS","B1","B1","B1","B1","PISd",0,0,0,0,"B1", 0,15,   0, 0,    0,"AIS","N/A    ","OK ","OK ",    001151.028,    -085.806,    0002.951,    0009.832,    0064.007
"FRM_AIS_EDR_2188.DAT           ",2005-09-27T09:13:51.27 ,"1/0075892426.12716",    0,   11,  274896,"AIS","B1","B1","B1","B1","PISd",0,0,0,0,"B1", 0,15,   0, 0,    0,"AIS","N/A    ","OK ","OK ",    001140.717,    -085.600,    0006.402,    0010.064,    0063.699
"FRM_AIS_EDR_2188.DAT           ",2005-09-27T09:13:58.81 ,"1/0075892433.48315",    0,   12,  274896,"AIS","B1","B1","B1","B1","PISd",0,0,0,0,"B1", 0,15,   0, 0,    0,"AIS","N/A    ","OK ","OK ",    001130.437,    -085.379,    0009.547,    0010.276,    0063.389
"FRM_AIS_EDR_2188.DAT           ",2005-09-27T09:14:06.35 ,"1/0075892441.18378",    0,   13,  274896,"AIS","B1","B1","B1","B1","PISd",0,0,0,0,"B1", 0,15,   0, 0,    0,"AIS","N/A    ","OK ","OK ",    001120.191,    -085.144,    0012.406,    0010.469,    0063.078
"FRM_AIS_EDR_2188.DAT           ",2005-09-27T09:14:13.89 ,"1/0075892448.53978",    0,   14,  274896,"AIS","B1","B1","B1","B1","PISd",0,0,0,0,"B1", 0,15,   0, 0,    0,"AIS","N/A    ","OK ","OK ",    001109.977,    -084.896,    0015.005,    0010.644,    0062.766
"FRM_AIS_EDR_2188.DAT           ",2005-09-27T09:14:21.44 ,"1/0075892456.24041",    0,   15,  274896,"AIS","B1","B1","B1","B1","PISd",0,0,0,0,"B1", 0,15,   0, 0,    0,"AIS","N/A    ","OK ","OK ",    001099.796,    -084.638,    0017.367,    0010.803,    0062.452
"FRM_AIS_EDR_2188.DAT           ",2005-09-27T09:14:28.98 ,"1/0075892463.59640",    0,   16,  274896,"AIS","B1","B1","B1","B1","PISd",0,0,0,0,"B1", 0,15,   0, 0,    0,"AIS","N/A    ","OK ","OK ",    001089.650,    -084.370,    0019.515,    0010.949,    0062.137
"FRM_AIS_EDR_2188.DAT           ",2005-09-27T09:14:36.52 ,"1/0075892471.29704",    0,   17,  274896,"AIS","B1","B1","B1","B1","PISd",0,0,0,0,"B1", 0,15,   0, 0,    0,"AIS","N/A    ","OK ","OK ",    001079.538,    -084.093,    0021.472,    0011.081,    0061.821
"FRM_AIS_EDR_2188.DAT           ",2005-09-27T09:14:44.07 ,"1/0075892478.65303",    0,   18,  274896,"AIS","B1","B1","B1","B1","PISd",0,0,0,0,"B1", 0,15,   0, 0,    0,"AIS","N/A    ","OK ","OK ",    001069.461,    -083.809,    0023.257,    0011.202,    0061.504
"FRM_AIS_EDR_2188.DAT           ",2005-09-27T09:14:51.61 ,"1/0075892486.35366",    0,   19,  274896,"AIS","B1","B1","B1","B1","PISd",0,0,0,0,"B1", 0,15,   0, 0,    0,"AIS","N/A    ","OK ","OK ",    001059.419,    -083.517,    0024.889,    0011.313,    0061.185
"FRM_AIS_EDR_2188.DAT           ",2005-09-27T09:14:59.15 ,"1/0075892494.05430",    0,   20,  274896,"AIS","B1","B1","B1","B1","PISd",0,0,0,0,"B1", 0,15,   0, 0,    0,"AIS","N/A    ","OK ","OK ",    001049.414,    -083.219,    0026.385,    0011.415,    0060.865
"FRM_AIS_EDR_2188.DAT           ",2005-09-27T09:15:06.70 ,"1/0075892501.41029",    0,   21,  274896,"AIS","B1","B1","B1","B1","PISd",0,0,0,0,"B1", 0,15,   0, 0,    0,"AIS","N/A    ","OK ","OK ",    001039.445,    -082.916,    0027.757,    0011.508,    0060.543
"FRM_AIS_EDR_2188.DAT           ",2005-09-27T09:15:14.24 ,"1/0075892509.11092",    0,   22,  274896,"AIS","B1","B1","B1","B1","PISd",0,0,0,0,"B1", 0,15,   0, 0,    0,"AIS","N/A    ","OK ","OK ",    001029.513,    -082.607,    0029.020,    0011.594,    0060.220
"FRM_AIS_EDR_2188.DAT           ",2005-09-27T09:15:21.78 ,"1/0075892516.46692",    0,   23,  274896,"AIS","B1","B1","B1","B1","PISd",0,0,0,0,"B1", 0,15,   0, 0,    0,"AIS","N/A    ","OK ","OK ",    001019.618,    -082.294,    0030.184,    0011.674,    0059.896
"FRM_AIS_EDR_2188.DAT           ",2005-09-27T09:15:29.33 ,"1/0075892524.16755",    0,   24,  274896,"AIS","B1","B1","B1","B1","PISd",0,0,0,0,"B1", 0,15,   0, 0,    0,"AIS","N/A    ","OK ","OK ",    001009.762,    -081.976,    0031.260,    0011.748,    0059.571
"FRM_AIS_EDR_2188.DAT           ",2005-09-27T09:15:36.87 ,"1/0075892531.52354",    0,   25,  274896,"AIS","B1","B1","B1","B1","PISd",0,0,0,0,"B1", 0,15,   0, 0,    0,"AIS","N/A    ","OK ","OK ",    000999.944,    -081.654,    0032.256,    0011.816,    0059.244
"FRM_AIS_EDR_2188.DAT           ",2005-09-27T09:15:44.41 ,"1/0075892539.22418",    0,   26,  274896,"AIS","B1","B1","B1","B1","PISd",0,0,0,0,"B1", 0,15,   0, 0,    0,"AIS","N/A    ","OK ","OK ",    000990.166,    -081.328,    0033.179,    0011.880,    0058.916
"FRM_AIS_EDR_2188.DAT           ",2005-09-27T09:15:51.96 ,"1/0075892546.58017",    0,   27,  274896,"AIS","B1","B1","B1","B1","PISd",0,0,0,0,"B1", 0,15,   0, 0,    0,"AIS","N/A    ","OK ","OK ",    000980.427,    -080.998,    0034.038,    0011.939,    0058.586
"FRM_AIS_EDR_2188.DAT           ",2005-09-27T09:15:59.50 ,"1/0075892554.28080",    0,   28,  274896,"AIS","B1","B1","B1","B1","PISd",0,0,0,0,"B1", 0,15,   0, 0,    0,"AIS","N/A    ","OK ","OK ",    000970.729,    -080.665,    0034.838,    0011.994,    0058.256
"FRM_AIS_EDR_2188.DAT           ",2005-09-27T09:16:07.04 ,"1/0075892561.63680",    0,   29,  274896,"AIS","B1","B1","B1","B1","PISd",0,0,0,0,"B1", 0,15,   0, 0,    0,"AIS","N/A    ","OK ","OK ",    000961.071,    -080.328,    0035.584,    0012.046,    0057.924
"FRM_AIS_EDR_2188.DAT           ",2005-09-27T09:16:14.59 ,"1/0075892569.33743",    0,   30,  274896,"AIS","B1","B1","B1","B1","PISd",0,0,0,0,"B1", 0,15,   0, 0,    0,"AIS","N/A    ","OK ","OK ",    000951.455,    -079.989,    0036.282,    0012.095,    0057.590
"FRM_AIS_EDR_2188.DAT           ",2005-09-27T09:16:22.13 ,"1/0075892577.03806",    0,   31,  274896,"AIS","B1","B1","B1","B1","PISd",0,0,0,0,"B1", 0,15,   0, 0,    0,"AIS","N/A    ","OK ","OK ",    000941.880,    -079.646,    0036.935,    0012.141,    0057.256
"FRM_AIS_EDR_2188.DAT           ",2005-09-27T09:16:29.67 ,"1/0075892584.39406",    0,   32,  274896,"AIS","B1","B1","B1","B1","PISd",0,0,0,0,"B1", 0,15,   0, 0,    0,"AIS","N/A    ","OK ","OK ",    000932.348,    -079.300,    0037.547,    0012.183,    0056.920
"FRM_AIS_EDR_2188.DAT           ",2005-09-27T09:16:37.22 ,"1/0075892592.09469",    0,   33,  274896,"AIS","B1","B1","B1","B1","PISd",0,0,0,0,"B1", 0,15,   0, 0,    0,"AIS","N/A    ","OK ","OK ",    000922.860,    -078.952,    0038.122,    0012.224,    0056.583
"FRM_AIS_EDR_2188.DAT           ",2005-09-27T09:16:44.76 ,"1/0075892599.45068",    0,   34,  274896,"AIS","B1","B1","B1","B1","PISd",0,0,0,0,"B1", 0,15,   0, 0,    0,"AIS","N/A    ","OK ","OK ",    000913.415,    -078.601,    0038.663,    0012.262,    0056.244
"FRM_AIS_EDR_2188.DAT           ",2005-09-27T09:16:52.30 ,"1/0075892607.15132",    0,   35,  274896,"AIS","B1","B1","B1","B1","PISd",0,0,0,0,"B1", 0,15,   0, 0,    0,"AIS","N/A    ","OK ","OK ",    000904.014,    -078.248,    0039.173,    0012.298,    0055.904
"FRM_AIS_EDR_2188.DAT           ",2005-09-27T09:16:59.85 ,"1/0075892614.50731",    0,   36,  274896,"AIS","B1","B1","B1","B1","PISd",0,0,0,0,"B1", 0,15,   0, 0,    0,"AIS","N/A    ","OK ","OK ",    000894.657,    -077.892,    0039.653,    0012.332,    0055.563
"FRM_AIS_EDR_2188.DAT           ",2005-09-27T09:17:07.39 ,"1/0075892622.20795",    0,   37,  274896,"AIS","B1","B1","B1","B1","PISd",0,0,0,0,"B1", 0,15,   0, 0,    0,"AIS","N/A    ","OK ","OK ",    000885.347,    -077.533,    0040.107,    0012.364,    0055.221
"FRM_AIS_EDR_2188.DAT           ",2005-09-27T09:17:14.93 ,"1/0075892629.56394",    0,   38,  274896,"AIS","B1","B1","B1","B1","PISd",0,0,0,0,"B1", 0,15,   0, 0,    0,"AIS","N/A    ","OK ","OK ",    000876.082,    -077.172,    0040.535,    0012.395,    0054.877
"FRM_AIS_EDR_2188.DAT           ",2005-09-27T09:17:22.47 ,"1/0075892637.26457",    0,   39,  274896,"AIS","B1","B1","B1","B1","PISd",0,0,0,0,"B1", 0,15,   0, 0,    0,"AIS","N/A    ","OK ","OK ",    000866.864,    -076.809,    0040.941,    0012.424,    0054.533
"FRM_AIS_EDR_2188.DAT           ",2005-09-27T09:17:30.02 ,"1/0075892644.62057",    0,   40,  274896,"AIS","B1","B1","B1","B1","PISd",0,0,0,0,"B1", 0,15,   0, 0,    0,"AIS","N/A    ","OK ","OK ",    000857.693,    -076.444,    0041.326,    0012.451,    0054.186
"FRM_AIS_EDR_2188.DAT           ",2005-09-27T09:17:37.56 ,"1/0075892652.32120",    0,   41,  274896,"AIS","B1","B1","B1","B1","PISd",0,0,0,0,"B1", 0,15,   0, 0,    0,"AIS","N/A    ","OK ","OK ",    000848.569,    -076.076,    0041.691,    0012.478,    0053.839
"FRM_AIS_EDR_2188.DAT           ",2005-09-27T09:17:45.10 ,"1/0075892660.02183",    0,   42,  274896,"AIS","B1","B1","B1","B1","PISd",0,0,0,0,"B1", 0,15,   0, 0,    0,"AIS","N/A    ","OK ","OK ",    000839.495,    -075.706,    0042.038,    0012.503,    0053.490
"FRM_AIS_EDR_2188.DAT           ",2005-09-27T09:17:52.65 ,"1/0075892667.37783",    0,   43,  274896,"AIS","B1","B1","B1","B1","PISd",0,0,0,0,"B1", 0,15,   0, 0,    0,"AIS","N/A    ","OK ","OK ",    000830.469,    -075.334,    0042.367,    0012.527,    0053.140
"FRM_AIS_EDR_2188.DAT           ",2005-09-27T09:18:00.19 ,"1/0075892675.07846",    0,   44,  274896,"AIS","B1","B1","B1","B1","PISd",0,0,0,0,"B1", 0,15,   0, 0,    0,"AIS","N/A    ","OK ","OK ",    000821.492,    -074.960,    0042.680,    0012.550,    0052.789
"FRM_AIS_EDR_2188.DAT           ",2005-09-27T09:18:07.73 ,"1/0075892682.43445",    0,   45,  274896,"AIS","B1","B1","B1","B1","PISd",0,0,0,0,"B1", 0,15,   0, 0,    0,"AIS","N/A    ","OK ","OK ",    000812.566,    -074.584,    0042.979,    0012.572,    0052.437
"FRM_AIS_EDR_2188.DAT           ",2005-09-27T09:18:15.28 ,"1/0075892690.13509",    0,   46,  274896,"AIS","B1","B1","B1","B1","PISd",0,0,0,0,"B1", 0,15,   0, 0,    0,"AIS","N/A    ","OK ","OK ",    000803.691,    -074.206,    0043.263,    0012.593,    0052.083
"FRM_AIS_EDR_2188.DAT           ",2005-09-27T09:18:22.82 ,"1/0075892697.49108",    0,   47,  274896,"AIS","B1","B1","B1","B1","PISd",0,0,0,0,"B1", 0,15,   0, 0,    0,"AIS","N/A    ","OK ","OK ",    000794.867,    -073.825,    0043.534,    0012.613,    0051.728
"FRM_AIS_EDR_2188.DAT           ",2005-09-27T09:18:30.36 ,"1/0075892705.19171",    0,   48,  274896,"AIS","B1","B1","B1","B1","PISd",0,0,0,0,"B1", 0,15,   0, 0,    0,"AIS","N/A    ","OK ","OK ",    000786.095,    -073.443,    0043.793,    0012.632,    0051.372
"FRM_AIS_EDR_2188.DAT           ",2005-09-27T09:18:37.91 ,"1/0075892712.54771",    0,   49,  274896,"AIS","B1","B1","B1","B1","PISd",0,0,0,0,"B1", 0,15,   0, 0,    0,"AIS","N/A    ","OK ","OK ",    000777.375,    -073.059,    0044.040,    0012.651,    0051.015
"FRM_AIS_EDR_2188.DAT           ",2005-09-27T09:18:45.45 ,"1/0075892720.24834",    0,   50,  274896,"AIS","B1","B1","B1","B1","PISd",0,0,0,0,"B1", 0,15,   0, 0,    0,"AIS","N/A    ","OK ","OK ",    000768.709,    -072.673,    0044.277,    0012.669,    0050.656
"FRM_AIS_EDR_2188.DAT           ",2005-09-27T09:18:52.99 ,"1/0075892727.60433",    0,   51,  274896,"AIS","B1","B1","B1","B1","PISd",0,0,0,0,"B1", 0,15,   0, 0,    0,"AIS","N/A    ","OK ","OK ",    000760.097,    -072.284,    0044.503,    0012.686,    0050.297
"FRM_AIS_EDR_2188.DAT           ",2005-09-27T09:19:00.54 ,"1/0075892735.30497",    0,   52,  274896,"AIS","B1","B1","B1","B1","PISd",0,0,0,0,"B1", 0,15,   0, 0,    0,"AIS","N/A    ","OK ","OK ",    000751.540,    -071.894,    0044.719,    0012.702,    0049.936
"FRM_AIS_EDR_2188.DAT           ",2005-09-27T09:19:08.08 ,"1/0075892743.00560",    0,   53,  274896,"AIS","B1","B1","B1","B1","PISd",0,0,0,0,"B1", 0,15,   0, 0,    0,"AIS","N/A    ","OK ","OK ",    000743.038,    -071.502,    0044.926,    0012.718,    0049.574
"FRM_AIS_EDR_2188.DAT           ",2005-09-27T09:19:15.62 ,"1/0075892750.36159",    0,   54,  274896,"AIS","B1","B1","B1","B1","PISd",0,0,0,0,"B1", 0,15,   0, 0,    0,"AIS","N/A    ","OK ","OK ",    000734.591,    -071.108,    0045.125,    0012.733,    0049.211
"FRM_AIS_EDR_2188.DAT           ",2005-09-27T09:19:23.17 ,"1/0075892758.06223",    0,   55,  274896,"AIS","B1","B1","B1","B1","PISd",0,0,0,0,"B1", 0,15,   0, 0,    0,"AIS","N/A    ","OK ","OK ",    000726.201,    -070.713,    0045.316,    0012.748,    0048.847
"FRM_AIS_EDR_2188.DAT           ",2005-09-27T09:19:30.71 ,"1/0075892765.41822",    0,   56,  274896,"AIS","B1","B1","B1","B1","PISd",0,0,0,0,"B1", 0,15,   0, 0,    0,"AIS","N/A    ","OK ","OK ",    000717.869,    -070.315,    0045.498,    0012.762,    0048.482
"FRM_AIS_EDR_2188.DAT           ",2005-09-27T09:19:38.25 ,"1/0075892773.11885",    0,   57,  274896,"AIS","B1","B1","B1","B1","PISd",0,0,0,0,"B1", 0,15,   0, 0,    0,"AIS","N/A    ","OK ","OK ",    000709.594,    -069.915,    0045.674,    0012.776,    0048.115
"FRM_AIS_EDR_2188.DAT           ",2005-09-27T09:19:45.80 ,"1/0075892780.47485",    0,   58,  274896,"AIS","B1","B1","B1","B1","PISd",0,0,0,0,"B1", 0,15,   0, 0,    0,"AIS","N/A    ","OK ","OK ",    000701.377,    -069.514,    0045.843,    0012.789,    0047.748
"FRM_AIS_EDR_2188.DAT           ",2005-09-27T09:19:53.34 ,"1/0075892788.17548",    0,   59,  274896,"AIS","B1","B1","B1","B1","PISd",0,0,0,0,"B1", 0,15,   0, 0,    0,"AIS","N/A    ","OK ","OK ",    000693.220,    -069.111,    0046.004,    0012.802,    0047.379
"FRM_AIS_EDR_2188.DAT           ",2005-09-27T09:20:00.88 ,"1/0075892795.53147",    0,   60,  274896,"AIS","B1","B1","B1","B1","PISd",0,0,0,0,"B1", 0,15,   0, 0,    0,"AIS","N/A    ","OK ","OK ",    000685.122,    -068.706,    0046.160,    0012.814,    0047.010
"FRM_AIS_EDR_2188.DAT           ",2005-09-27T09:20:08.43 ,"1/0075892803.23211",    0,   61,  274896,"AIS","B1","B1","B1","B1","PISd",0,0,0,0,"B1", 0,15,   0, 0,    0,"AIS","N/A    ","OK ","OK ",    000677.084,    -068.299,    0046.310,    0012.827,    0046.639
"FRM_AIS_EDR_2188.DAT           ",2005-09-27T09:20:15.97 ,"1/0075892810.58810",    0,   62,  274896,"AIS","B1","B1","B1","B1","PISd",0,0,0,0,"B1", 0,15,   0, 0,    0,"AIS","N/A    ","OK ","OK ",    000669.108,    -067.891,    0046.454,    0012.838,    0046.268
"FRM_AIS_EDR_2188.DAT           ",2005-09-27T09:20:23.51 ,"1/0075892818.28873",    0,   63,  274896,"AIS","B1","B1","B1","B1","PISd",0,0,0,0,"B1", 0,15,   0, 0,    0,"AIS","N/A    ","OK ","OK ",    000661.194,    -067.481,    0046.593,    0012.849,    0045.895
"FRM_AIS_EDR_2188.DAT           ",2005-09-27T09:20:31.05 ,"1/0075892825.64473",    0,   64,  274896,"AIS","B1","B1","B1","B1","PISd",0,0,0,0,"B1", 0,15,   0, 0,    0,"AIS","N/A    ","OK ","OK ",    000653.341,    -067.069,    0046.726,    0012.861,    0045.522
"FRM_AIS_EDR_2188.DAT           ",2005-09-27T09:20:38.60 ,"1/0075892833.34536",    0,   65,  274896,"AIS","B1","B1","B1","B1","PISd",0,0,0,0,"B1", 0,15,   0, 0,    0,"AIS","N/A    ","OK ","OK ",    000645.552,    -066.655,    0046.855,    0012.871,    0045.147
"FRM_AIS_EDR_2188.DAT           ",2005-09-27T09:20:46.14 ,"1/0075892841.04599",    0,   66,  274896,"AIS","B1","B1","B1","B1","PISd",0,0,0,0,"B1", 0,15,   0, 0,    0,"AIS","N/A    ","OK ","OK ",    000637.827,    -066.239,    0046.979,    0012.881,    0044.772
"FRM_AIS_EDR_2188.DAT           ",2005-09-27T09:20:53.68 ,"1/0075892848.40199",    0,   67,  274896,"AIS","B1","B1","B1","B1","PISd",0,0,0,0,"B1", 0,15,   0, 0,    0,"AIS","N/A    ","OK ","OK ",    000630.165,    -065.822,    0047.099,    0012.891,    0044.396
"FRM_AIS_EDR_2188.DAT           ",2005-09-27T09:21:01.23 ,"1/0075892856.10262",    0,   68,  274896,"AIS","B1","B1","B1","B1","PISd",0,0,0,0,"B1", 0,15,   0, 0,    0,"AIS","N/A    ","OK ","OK ",    000622.569,    -065.403,    0047.214,    0012.901,    0044.019
"FRM_AIS_EDR_2188.DAT           ",2005-09-27T09:21:08.77 ,"1/0075892863.45861",    0,   69,  274896,"AIS","B1","B1","B1","B1","PISd",0,0,0,0,"B1", 0,15,   0, 0,    0,"AIS","N/A    ","OK ","OK ",    000615.039,    -064.982,    0047.325,    0012.911,    0043.641
"FRM_AIS_EDR_2188.DAT           ",2005-09-27T09:21:16.31 ,"1/0075892871.15925",    0,   70,  274896,"AIS","B1","B1","B1","B1","PISd",0,0,0,0,"B1", 0,15,   0, 0,    0,"AIS","N/A    ","OK ","OK ",    000607.575,    -064.560,    0047.433,    0012.920,    0043.262
"FRM_AIS_EDR_2188.DAT           ",2005-09-27T09:21:23.86 ,"1/0075892878.51524",    0,   71,  274896,"AIS","B1","B1","B1","B1","PISd",0,0,0,0,"B1", 0,15,   0, 0,    0,"AIS","N/A    ","OK ","OK ",    000600.178,    -064.136,    0047.536,    0012.929,    0042.882
"FRM_AIS_EDR_2188.DAT           ",2005-09-27T09:21:31.40 ,"1/0075892886.21587",    0,   72,  274896,"AIS","B1","B1","B1","B1","PISd",0,0,0,0,"B1", 0,15,   0, 0,    0,"AIS","N/A    ","OK ","OK ",    000592.849,    -063.710,    0047.636,    0012.938,    0042.502
"FRM_AIS_EDR_2188.DAT           ",2005-09-27T09:21:38.94 ,"1/0075892893.57187",    0,   73,  274896,"AIS","B1","B1","B1","B1","PISd",0,0,0,0,"B1", 0,15,   0, 0,    0,"AIS","N/A    ","OK ","OK ",    000585.588,    -063.283,    0047.733,    0012.946,    0042.121
"FRM_AIS_EDR_2188.DAT           ",2005-09-27T09:21:46.49 ,"1/0075892901.27250",    0,   74,  274896,"AIS","B1","B1","B1","B1","PISd",0,0,0,0,"B1", 0,15,   0, 0,    0,"AIS","N/A    ","OK ","OK ",    000578.396,    -062.854,    0047.826,    0012.954,    0041.740
"FRM_AIS_EDR_2188.DAT           ",2005-09-27T09:21:54.03 ,"1/0075892908.62849",    0,   75,  274896,"AIS","B1","B1","B1","B1","PISd",0,0,0,0,"B1", 0,15,   0, 0,    0,"AIS","N/A    ","OK ","OK ",    000571.274,    -062.423,    0047.917,    0012.962,    0041.357
"FRM_AIS_EDR_2188.DAT           ",2005-09-27T09:22:01.57 ,"1/0075892916.32913",    0,   76,  274896,"AIS","B1","B1","B1","B1","PISd",0,0,0,0,"B1", 0,15,   0, 0,    0,"AIS","N/A    ","OK ","OK ",    000564.222,    -061.991,    0048.004,    0012.970,    0040.974
"FRM_AIS_EDR_2188.DAT           ",2005-09-27T09:22:09.12 ,"1/0075892924.02976",    0,   77,  274896,"AIS","B1","B1","B1","B1","PISd",0,0,0,0,"B1", 0,15,   0, 0,    0,"AIS","N/A    ","OK ","OK ",    000557.242,    -061.557,    0048.088,    0012.978,    0040.591
"FRM_AIS_EDR_2188.DAT           ",2005-09-27T09:22:16.66 ,"1/0075892931.38575",    0,   78,  274896,"AIS","B1","B1","B1","B1","PISd",0,0,0,0,"B1", 0,15,   0, 0,    0,"AIS","N/A    ","OK ","OK ",    000550.333,    -061.121,    0048.170,    0012.985,    0040.207
"FRM_AIS_EDR_2188.DAT           ",2005-09-27T09:22:24.20 ,"1/0075892939.08639",    0,   79,  274896,"AIS","B1","B1","B1","B1","PISd",0,0,0,0,"B1", 0,15,   0, 0,    0,"AIS","N/A    ","OK ","OK ",    000543.496,    -060.684,    0048.248,    0012.992,    0039.822
"FRM_AIS_EDR_2188.DAT           ",2005-09-27T09:22:31.75 ,"1/0075892946.44238",    0,   80,  274896,"AIS","B1","B1","B1","B1","PISd",0,0,0,0,"B1", 0,15,   0, 0,    0,"AIS","N/A    ","OK ","OK ",    000536.733,    -060.246,    0048.325,    0013.000,    0039.437
"FRM_AIS_EDR_2188.DAT           ",2005-09-27T09:22:39.29 ,"1/0075892954.14301",    0,   81,  274896,"AIS","B1","B1","B1","B1","PISd",0,0,0,0,"B1", 0,15,   0, 0,    0,"AIS","N/A    ","OK ","OK ",    000530.043,    -059.805,    0048.398,    0013.007,    0039.052
"FRM_AIS_EDR_2188.DAT           ",2005-09-27T09:22:46.83 ,"1/0075892961.49901",    0,   82,  274896,"AIS","B1","B1","B1","B1","PISd",0,0,0,0,"B1", 0,15,   0, 0,    0,"AIS","N/A    ","OK ","OK ",    000523.428,    -059.364,    0048.470,    0013.013,    0038.666
"FRM_AIS_EDR_2188.DAT           ",2005-09-27T09:22:54.38 ,"1/0075892969.19964",    0,   83,  274896,"AIS","B1","B1","B1","B1","PISd",0,0,0,0,"B1", 0,15,   0, 0,    0,"AIS","N/A    ","OK ","OK ",    000516.888,    -058.920,    0048.539,    0013.020,    0038.280
"FRM_AIS_EDR_2188.DAT           ",2005-09-27T09:23:01.92 ,"1/0075892976.55563",    0,   84,  274896,"AIS","B1","B1","B1","B1","PISd",0,0,0,0,"B1", 0,15,   0, 0,    0,"AIS","N/A    ","OK ","OK ",    000510.424,    -058.475,    0048.606,    0013.026,    0037.894
"FRM_AIS_EDR_2188.DAT           ",2005-09-27T09:23:09.46 ,"1/0075892984.25627",    0,   85,  274896,"AIS","B1","B1","B1","B1","PISd",0,0,0,0,"B1", 0,15,   0, 0,    0,"AIS","N/A    ","OK ","OK ",    000504.036,    -058.029,    0048.670,    0013.033,    0037.508
"FRM_AIS_EDR_2188.DAT           ",2005-09-27T09:23:17.01 ,"1/0075892991.61226",    0,   86,  274896,"AIS","B1","B1","B1","B1","PISd",0,0,0,0,"B1", 0,15,   0, 0,    0,"AIS","N/A    ","OK ","OK ",    000497.725,    -057.581,    0048.733,    0013.039,    0037.121
"FRM_AIS_EDR_2188.DAT           ",2005-09-27T09:23:24.55 ,"1/0075892999.31289",    0,   87,  274896,"AIS","B1","B1","B1","B1","PISd",0,0,0,0,"B1", 0,15,   0, 0,    0,"AIS","N/A    ","OK ","OK ",    000491.492,    -057.132,    0048.794,    0013.045,    0036.734
"FRM_AIS_EDR_2188.DAT           ",2005-09-27T09:23:32.09 ,"1/0075893007.01353",    0,   88,  274896,"AIS","B1","B1","B1","B1","PISd",0,0,0,0,"B1", 0,15,   0, 0,    0,"AIS","N/A    ","OK ","OK ",    000485.337,    -056.681,    0048.853,    0013.051,    0036.347
"FRM_AIS_EDR_2188.DAT           ",2005-09-27T09:23:39.63 ,"1/0075893014.36952",    0,   89,  274896,"AIS","B1","B1","B1","B1","PISd",0,0,0,0,"B1", 0,15,   0, 0,    0,"AIS","N/A    ","OK ","OK ",    000479.261,    -056.229,    0048.910,    0013.057,    0035.961
"FRM_AIS_EDR_2188.DAT           ",2005-09-27T09:23:47.18 ,"1/0075893022.07015",    0,   90,  274896,"AIS","B1","B1","B1","B1","PISd",0,0,0,0,"B1", 0,15,   0, 0,    0,"AIS","N/A    ","OK ","OK ",    000473.265,    -055.775,    0048.965,    0013.063,    0035.574